Weather in Novovyatkino

Russia / Tyumen Oblast     56°35′29″N   70°26′23″E
temp.,
°C
wind,
m/s
gust,
m/s
humid.,
%
clouds,
%
prec.,
mm/h
press.,
hPa
HPBL,
m
21 june, mon
mon2123:00+6nw6992100 0.3 1003911
02:00+7nnw51092100 0.1 1003605
05:00+7nnw91797100 1.3 1003731
08:00+12n8149085 0.3 1007875
11:00+17nne9126270 1.1 10101614
14:00+18nne81151100 0.1 10122183
17:00+16nne8107085 0.4 10151111
20:00+12n6117843 0.1 1016587
22 june, tue
tue2223:00+10nnw5127551 0.1 1017328
02:00+7nnw36935 0.0 1018103
05:00+8nnw23895 0.0 101990
08:00+11nw237432 0.0 1019360
11:00+16nw4655100 0.3 10181779
14:00+17nne3449100 0.0 10171383
17:00+16w1157100 0.0 1017475
20:00+13nw3671100 0.1 1016126
23 june, wed
wed2323:00+10nnw1193100 1.7 101618
02:00+10nnw2293100 0.9 101537
05:00+8n3796100 1.1 1015196
08:00+12nne568665 0.4 1015751
11:00+14ne576454 1.2 10161469
14:00+13n578180 1.1 1017754
17:00+15nne685926 1.8 10171569
20:00+11n5974100 0.4 1018293
24 june, thu
thu2423:00+7n3679100 0.4 1018104
02:00+6nw358030 0.0 101785
05:00+8nw3771100 0.0 1018197
08:00+13n595983 0.0 10171231
11:00+11nne3579100 0.5 1017581
14:00+13ene336795 0.1 1016786
17:00+15sse326299 0.1 1015913
20:00+13sse357910 0.0 1015111
25 june, fri
fri2523:00+8sse36949 0.0 1015109
02:00+7s38965 0.0 1014140
05:00+8s3893100 0.0 1013176
08:00+12sse5779100 0.0 1012328
11:00+18s4460100 0.0 1011990
14:00+18s336289 0.0 10111084
17:00+19s225683 0.1 10101541
20:00+16e347099 0.1 101168